User: anonymous   Login
Location: Unspecified
(0.0000°N, 0.0000°E)
Time: 23:19:15
(UTC+00:00)
Language:

OBJECT H - Orbit

View from above orbital plane
View from above orbital plane
View from above satellite
View from above satellite

Ground track
Ground track

The orbit data is extracted from the following two-line orbital elements,

1 42832U 17042H   23083.53189056  .00007268  00000-0  69233-3 0  9995
2 42832  97.3964 286.9875 0013971 141.0681 219.1549 14.93585469309902
Epoch (UTC): 24 March 2023 12:45:55
Eccentricity: 0.0013971
inclination: 97.3964°
perigee height: 577 km
apogee height: 596 km
right ascension of ascending node: 286.9875°
argument of perigee: 141.0681°
revolutions per day: 14.93585469
mean anomaly at epoch: 219.1549°
orbit number at epoch: 30990

The dashed part of the orbit path shows where the satellite is in the earth's shadow,  

DLR